www.pogodaiklimat.ru

Погода и климат >> Архив погоды >> Китай >> Цзяньси >> Цзиндэчжэнь


ПОГОДА в Цзиндэчжэне

  • Прогноз погоды в Цзиндэчжэне
  • Монитор погоды в Цзиндэчжэне

АРХИВ ПОГОДЫ в Цзиндэчжэне

Время (UTC), дата Ветер
(напр.,м/с)
 
Видим.   Явления Облачность Т
(С)
Тd
(С)
f
(%)
Тe
(С)
Тes
(С)
Комфортность P
(гПа)
Po
(гПа)
Тmin
(С)
Tmax
(С)
R
(мм)
R24
(мм)
S
(см)
00 13.09 С 1 9000 м 9/9 1000 м
[]
+29.0 +23.4 72 +39 +40 очень
душно
1010.0 1002.9
03 13.09 В 1 11 км 5/5 600 м
[]
+34.9 +23.3 51 +45 +55 опасность
перегрева
1009.4 1002.7
06 13.09 С 2 12 км 3/3 600 м
[]
+38.4 +22.8 41 +48 +57 опасность
перегрева
1006.9 999.8 +25.8
09 13.09 В 1 12 км 5/5 600 м
[]
+37.0 +20.7 39 +44 +45 опасность
перегрева
1006.5 999.9
12 13.09 С 1 11 км 3/3 1000 м
[]
+32.0 +23.5 61 +43 +43 опасность
перегрева
1008.7 1001.6
15 13.09 С 2 11 км н/о +29.6 +23.8 71 +41 +41 опасность
перегрева
1009.2 1002.4
18 13.09 В 1 11 км н/о +28.5 +23.6 75 +39 +39 очень
душно
1009.2 1002.2 +39.0
21 13.09 В 2 10 км н/о +27.2 +23.4 80 +37 +37 очень
душно
1009.5 1002.6
00 14.09 В 1 10 км 4/4 600 м
[]
+29.9 +24.1 71 +41 +44 опасность
перегрева
1010.9 1003.8
03 14.09 В 2 12 км 3/3 600 м
[]
+35.2 +21.1 44 +42 +54 опасность
перегрева
1010.3 1003.6
06 14.09 С 2 13 км 3/3 600 м
[]
+37.7 +21.4 39 +45 +55 опасность
перегрева
1008.1 1001.1 +26.6
09 14.09 В 2 12 км н/о +35.2 +21.5 45 +43 +43 опасность
перегрева
1008.1 1001.4
12 14.09 С 2 11 км 4/4 1000 м
[]
+31.0 +21.8 58 +39 +39 очень
душно
1010.0 1002.9
15 14.09 С 2 11 км н/о +28.8 +21.3 64 +36 +36 очень
душно
1011.0 1004.2
18 14.09 С 2 11 км н/о +26.9 +21.7 73 +34 +34 очень
душно
1010.3 1003.2 +37.9
21 14.09 С 1 9000 м н/о +25.4 +21.9 81 +33 +33 очень
душно
1010.1 1003.2
00 15.09 В 2 10 км 3/3 600 м
[]
+28.3 +22.1 69 +37 +39 очень
душно
1011.3 1004.1
03 15.09 ЮВ 3 12 км 5/5 1000 м
[]
+32.9 +20.4 48 +40 +46 очень
душно
1010.7 1004.0
06 15.09 СВ 2 12 км 9/9 1000 м
[]
+36.1 +21.9 44 +44 +46 опасность
перегрева
1008.3 1001.2 +25.1
09 15.09 С 1 11 км 9/9 1000 м
[]
+33.2 +21.4 50 +41 +41 опасность
перегрева
1007.8 1001.1
12 15.09 СВ 1 11 км 9/9 1000 м
[]
+29.9 +22.4 64 +39 +39 очень
душно
1009.7 1002.5
15 15.09 СВ 1 10 км н/о +27.6 +22.3 73 +36 +36 очень
душно
1010.4 1003.5
18 15.09 С 1 9000 м н/о +25.9 +21.8 78 +33 +33 очень
душно
1009.9 1002.8 +36.7
21 15.09 С 1 9000 м н/о +24.9 +21.4 81 +32 +32 очень
душно
1010.8 1003.9
00 16.09 С 1 9000 м 9/9 1000 м
[]
+27.4 +22.1 73 +36 +36 очень
душно
1012.1 1004.9
03 16.09 В 1 10 км 3/3 1000 м
[]
+32.3 +21.8 54 +41 +54 опасность
перегрева
1011.8 1005.0
06 16.09 С 2 12 км 5/5 1000 м
[]
+34.5 +20.8 45 +42 +48 опасность
перегрева
1009.8 1002.7 +24.8
09 16.09 С 2 12 км 5/5 1000 м
[]
+32.2 +20.1 49 +39 +39 очень
душно
1009.4 1002.6
12 16.09 СВ 2 13 км 5/5 1000 м
[]
+28.9 +18.4 53 +34 +34 очень
душно
1010.6 1003.4
15 16.09 С 1 14 км н/о +26.0 +17.1 58 +30 +30 душно 1012.0 1005.1
18 16.09 С 1 14 км н/о +24.3 +16.3 61 +28 +28 душно 1012.0 1004.8 +34.5
21 16.09 С 1 14 км н/о +22.8 +16.4 67 +27 +27 душно 1013.1 1006.1
00 17.09 СВ 1 12 км 3/3 1000 м
[]
+25.4 +17.6 62 +30 +32 душно 1015.2 1008.0
03 17.09 С 2 13 км 4/4 600 м
[]
+30.8 +17.1 44 +35 +44 очень
душно
1014.4 1007.6
06 17.09 С 2 13 км 5/5 600 м
[]
+33.0 +18.4 42 +38 +44 очень
душно
1012.0 1004.8 +22.3
09 17.09 С 1 12 км 5/5 600 м
[]
+32.2 +18.8 45 +37 +38 очень
душно
1011.5 1004.7
12 17.09 С 1 12 км ясно +28.8 +18.3 53 +34 +34 очень
душно
1014.0 1006.8
15 17.09 С 2 13 км н/о +27.3 +15.3 48 +30 +30 душно 1015.5 1008.6
18 17.09 С 2 12 км н/о +25.5 +16.1 56 +29 +29 душно 1015.4 1008.2 +34.4
21 17.09 С 1 12 км н/о +23.6 +16.9 66 +27 +27 жарко 1016.0 1009.0
00 18.09 С 1 11 км 5/5 600 м
[]
+26.0 +18.2 62 +31 +31 очень
душно
1018.4 1011.1
03 18.09 С 2 13 км 3/3 600 м
[]
+31.7 +14.8 36 +34 +44 душно 1017.9 1011.1
06 18.09 С 2 14 км 5/5 600 м
[]
+33.1 +12.2 28 +33 +40 жарко 1015.7 1008.5 +23.0
09 18.09 С 2 13 км 5/5 600 м
[]
+30.9 +10.8 29 +31 +32 жарко 1015.9 1009.1
12 18.09 В 1 14 км 6/6 1000 м
[]
+26.7 +11.2 38 +28 +28 жарко 1017.7 1010.4
15 18.09 В 1 14 км н/о +24.6 +11.9 45 +26 +26 жарко 1018.0 1011.0
18 18.09 штиль 0 14 км н/о +22.1 +12.9 56 +25 +25 комфорт 1017.9 1010.7 +33.8
21 18.09 С 1 14 км н/о +20.6 +14.0 66 +24 +24 комфорт 1018.0 1010.9
00 19.09 С 1 12 км 3/3 1000 м
[]
+23.6 +15.6 61 +27 +27 жарко 1019.4 1012.1
03 19.09 С 3 13 км 3/3 1000 м
[]
+29.2 +15.7 44 +32 +41 душно 1018.1 1011.2
06 19.09 С 2 14 км ясно +32.4 +12.1 29 +33 +46 жарко 1014.6 1007.4 +19.9
09 19.09 С 1 14 км н/о +31.0 +7.5 23 +30 +30 жарко 1013.8 1007.0
12 19.09 СВ 1 14 км 9/9 1000 м
[]
+25.8 +9.2 35 +26 +26 жарко 1015.1 1007.8
15 19.09 СВ 1 15 км н/о +22.9 +11.0 47 +25 +25 комфорт 1015.6 1008.6
18 19.09 В 2 15 км н/о +21.0 +12.2 57 +24 +24 комфорт 1014.5 1007.3 +33.0
21 19.09 СВ 1 15 км н/о +19.3 +12.8 66 +22 +22 комфорт 1014.8 1007.7

 

Местоположение метеостанции Цзиндэчжэнь (Цзяньси, Китай): широта 29.30 долгота 117.20 высота над уровнем моря 60 м.

В архиве по умолчанию представлена погода в Цзиндэчжэне за последнюю неделю. Архивные данные за месяц целиком и за предыдущие месяцы, начиная с января 2011 года, Вы можете получить, выбрав интересующий диапазон дат из раскрывающегося списка и нажав кнопку "Ввод!".


*Определитесь, кто Вы:
робот инопланетянин человек

Внимание! Время в таблицах - всемирное. Для получения местного времени необходимо прибавить поправку, которая равна 8 ч.

Смотрите также архив погоды в соседних городах и на ближайших метеорологических станциях:

Погода в Лушане (Цзяньси, Китай) (122 км)
Погода на Хуаншане (Аньхой, Китай) (130 км)
Погода в Аньцине (Аньхой, Китай) (138 км)
Погода в Наньчане (Цзяньси, Китай) (148 км)
Погода в Цюйчжоу (Чжэцзян, Китай) (165 км)
Погода в Цяньдаоху (Чжэцзян, Китай) (180 км)
Погода в Уишане (Фуцзянь, Китай) (189 км)
Погода в Наньчене (Цзяньси, Китай) (199 км)
Погода в Пученге (Фуцзянь, Китай) (201 км)
Погода в Шаову (Фуцзянь, Китай) (221 км)

Пояснения к столбцам:

Ветер - указаны скорость ветра в м/с - средняя за 10 мин, порывы в срок и между сроками (в фигурных скобках) и направление, откуда дует ветер: С - северный, СВ - северо-восточный, В - восточный, ЮВ - юго-восточный, Ю - южный, ЮЗ - юго-западный, З - западный, СЗ - северо-западный.
Видимость - горизонтальная дальность видимости в метрах или километрах. При видимости от 1 до 10 км при отсутствии осадков обычно наблюдается дымка, при ухудшении видимости до 1 км и менее - туман. В сухую погоду видимость может ухудшаться дымом, пылью или мглою.
Явления - указаны атмосферные явления, наблюдавшиеся в срок или в последний час перед сроком; фигурными скобками обозначены явления, наблюдавшиеся между сроками (за 1-3 часа до срока); квадратными скобками обозначены град или гололедные отложения с указанием их диаметра в мм.
Облачность - указаны через наклонную черту общая и нижняя облачность в баллах и высота нижней границы облаков в метрах; квадратными скобками обозначены формы облаков: Ci - перистые, Cs - перисто-слоистые, Cc - перисто-кучевые, Ac - высококучевые, As - высокослоистые, Sc - слоисто-кучевые, Ns - слоисто-дождевые, Cu - кучевые, Cb - кучево-дождевые. Подробнее классификацию облаков см. в Атласе облаков (PDF).
T - Температура воздуха - температура, измеренная на высоте 2 м над землей.
Td - Температура точки росы - температура, при понижении до которой содержащийся в воздухе водяной пар достигнет насыщения.
f - Относительная влажность воздуха - влажноcть воздуха, измеренная на высоте 2 м над землей.
Te - Эффективная температура - температура, которую ощущает одетый по сезону человек в тени. Характеристика душности погоды. При расчете учитывается влияние влажности воздуха и скорости ветра на теплоощущения человека.
Tes - Эффективная температура на солнце - температура, которую ощущает человек, с поправкой на солнечный нагрев. Характеристика знойности погоды. Зависит от высоты солнца над горизонтом, облачности и скорости ветра. Ночью, в пасмурную погоду, а также при ветре 12 м/с и более поправка равна нулю.
P - Атмосферное давление - приведенное к уровню моря атмосферное давление.
Po - Атмосферное давление - измеренное на уровне метеостанции атмосферное давление.
Tmin - Минимальная температура - минимум температуры воздуха на высоте 2 м над землей.
Tmax - Максимальная температура - максимум температуры воздуха на высоте 2 м над землей.
R - Количество осадков - Количество выпавших осадков за период времени, мм. При наведении курсора мыши на число - период времени, за который выпало указанное количество осадков.
R24 - Количество осадков - Количество выпавших осадков за 24 часа, мм.
S - Снежный покров - Высота снежного покрова, см. При наведении курсора мыши на число - состояние снежного покрова и степень покрытия местности в баллах.